Weather History for Charlotte, NC

Change the Weather History Date:

Monday, May 13, 2013

  Actual Average Record
Temperature  
Mean Temperature 56 °F 66 °F  
Max Temperature 69 °F 78 °F 93 °F (1881)
Min Temperature 42 °F 55 °F 38 °F (1960)
Degree Days  
Heating Degree Days 9 2  
Month to date heating degree days 55 33  
Since 1 July heating degree days 3202 3365  
Cooling Degree Days 0 3  
Month to date cooling degree days 14 32  
Year to date cooling degree days 57 69  
Growing Degree Days 6 (Base 50)    
Moisture  
Dew Point 34 °F    
Average Humidity 52    
Maximum Humidity 83    
Minimum Humidity 20    
Precipitation  
Precipitation 0.00 in 0.10 in 2.46 in (1919)
Month to date precipitation 2.27 1.28  
Year to date precipitation 18.02 15.06  
Snow  
Snow 0.00 in 0.00 in 0.00 in ()
Month to date snowfall 0.0 0.0  
Since 1 July snowfall 2.7 4.3  
Snow Depth 0.00 in    
Sea Level Pressure  
Sea Level Pressure 30.12 in    
Wind  
Wind Speed 5 mph (NNW)    
Max Wind Speed 15 mph    
Max Gust Speed 31 mph    
Visibility 10 miles    
Events      
T = Trace of Precipitation, MM = Missing Value Source: NWS Daily Summary

Daily Weather History Graph

Daily Weather History Graph

Search for Another Location

Airport:

Trip Planner

Search our weather history database for the weather conditions in past years. The results will help you decide how hot, cold, wet, or windy it might be!

Date:

Astronomy

May. 13, 2013 Rise Set
Actual Time 6:21 AM EDT 8:19 PM EDT
Civil Twilight 5:53 AM EDT 8:47 PM EDT
Nautical Twilight 5:19 AM EDT 9:21 PM EDT
Astronomical Twilight 4:42 AM EDT 9:58 PM EDT
Moon 9:06 AM EDT (5/13) 11:27 PM EDT (5/13)
Length of Visible Light 14h 54m
Length of Day
13h 58m
Waxing Crescent, 12% of the Moon is Illuminated
May 13
Waxing Crescent
May 18
First Quarter
May 25
Full
May 31
Last Quarter
Jun 8
New

Hourly Weather History & Observations

Time (EDT) Temp. Windchill Dew Point Humidity Pressure Visibility Wind Dir Wind Speed Gust Speed Precip Events Conditions
12:52 AM 50.0 °F - 36.0 °F 59% 30.05 in 10.0 mi North 3.5 mph - N/A   Clear
1:52 AM 48.9 °F - 36.0 °F 61% 30.06 in 10.0 mi North 3.5 mph - N/A   Clear
2:52 AM 48.9 °F - 35.1 °F 59% 30.06 in 10.0 mi Calm Calm - N/A   Clear
3:52 AM 46.9 °F - 37.0 °F 68% 30.08 in 10.0 mi NNW 4.6 mph - N/A   Clear
4:52 AM 44.1 °F 42.5 °F 37.9 °F 79% 30.10 in 10.0 mi North 3.5 mph - N/A   Clear
5:52 AM 43.0 °F 41.3 °F 37.9 °F 82% 30.11 in 10.0 mi NNW 3.5 mph - N/A   Mostly Cloudy
6:52 AM 44.1 °F 42.5 °F 39.0 °F 82% 30.13 in 10.0 mi NW 3.5 mph - N/A   Scattered Clouds
7:52 AM 48.9 °F - 41.0 °F 74% 30.16 in 10.0 mi NW 3.5 mph - N/A   Scattered Clouds
8:52 AM 55.9 °F - 39.9 °F 55% 30.17 in 10.0 mi Variable 3.5 mph - N/A   Partly Cloudy
9:52 AM 59.0 °F - 37.0 °F 44% 30.18 in 10.0 mi Variable 6.9 mph - N/A   Scattered Clouds
10:52 AM 61.0 °F - 34.0 °F 36% 30.18 in 10.0 mi North 8.1 mph - N/A   Scattered Clouds
11:52 AM 62.1 °F - 34.0 °F 35% 30.17 in 10.0 mi Calm Calm - N/A   Partly Cloudy
12:52 PM 63.0 °F - 34.0 °F 34% 30.16 in 10.0 mi WSW 9.2 mph - N/A   Partly Cloudy
1:52 PM 66.0 °F - 35.1 °F 32% 30.13 in 10.0 mi NNW 11.5 mph 16.1 mph N/A   Partly Cloudy
2:52 PM 66.9 °F - 34.0 °F 30% 30.11 in 10.0 mi Variable 5.8 mph - N/A   Partly Cloudy
4:52 PM 68.0 °F - 30.9 °F 25% 30.06 in 10.0 mi WNW 8.1 mph - N/A   Partly Cloudy
5:52 PM 68.0 °F - 30.9 °F 25% 30.05 in 10.0 mi WNW 8.1 mph - N/A   Partly Cloudy
6:52 PM 66.9 °F - 25.0 °F 21% 30.05 in 10.0 mi NNW 8.1 mph - N/A   Partly Cloudy
7:52 PM 62.6 °F - 26.6 °F 26% 30.08 in 10.0 mi NNW 8.1 mph - N/A   Partly Cloudy
8:52 PM 57.9 °F - 30.0 °F 35% 30.11 in 10.0 mi NW 3.5 mph - N/A   Partly Cloudy
9:52 PM 55.0 °F - 30.9 °F 40% 30.14 in 10.0 mi NNW 6.9 mph - N/A   Clear
10:52 PM 53.1 °F - 30.9 °F 43% 30.16 in 10.0 mi Calm Calm - N/A   Clear
11:52 PM 55.0 °F - 30.0 °F 38% 30.17 in 10.0 mi NNW 5.8 mph - N/A   Clear